Regional Weather Roundup
Issued by NWS

Home | Current Version | Previous Version | Graphics & Text | Print | Product List | Glossary On
Versions: 1 2 3 4 5 6 7 8 9 10 11 12 13 14 15 16 17 18 19 20 21 22 23 24 25 26 27 28 29 30 31 32 33 34 35 36 37 38 39 40 41 42 43 44 45 46 47 48 49 50
000
ASUS43 KTOP 251059
RWRKS

WEATHER ROUNDUP FOR KANSAS
NATIONAL WEATHER SERVICE GOODLAND KS
600 AM CDT TUE JUL 25 2017

NOTE:  "FAIR" INDICATES FEW OR NO CLOUDS BELOW 12,000 FEET WITH NO
SIGNIFICANT WEATHER AND/OR OBSTRUCTIONS TO VISIBILITY.

KSZ001>006-013>018-027>032-041>047-251200-
NORTHWEST KANSAS

CITY           SKY/WX    TMP DP  RH WIND       PRES   REMARKS
GOODLAND       CLEAR     70  65  84 S13       30.02R
HAYS             N/A     70  63  78 S6        30.01R
HILL CITY      CLEAR     72  62  71 S9        30.00R
RUSSELL        CLEAR     70  64  81 S10       30.00R
$$

KSZ061>065-074>080-084>089-251200-
SOUTHWEST KANSAS

CITY           SKY/WX    TMP DP  RH WIND       PRES   REMARKS
DODGE CITY     CLEAR     71  67  87 S9        30.05S
ELKHART          N/A     66  53  63 S10         N/A
GARDEN CITY    CLEAR     70  65  84 SE9       30.05R
GREAT BEND     CLEAR     69  65  86 S8        30.02R
LIBERAL        CLEAR     69  66  90 S8        30.06S
$$

KSZ066>073-081>083-090>101-251200-
SOUTHEAST KANSAS

CITY           SKY/WX    TMP DP  RH WIND       PRES   REMARKS
CHANUTE        CLEAR     73  72  96 SE5       30.04R
COFFEYVILLE    CLEAR     73  71  93 S5        30.03R
HUTCHINSON     CLEAR     73  68  84 S6        30.03R
MEDICINE LODGE   N/A     73  66  78 SE6       30.03R
NEWTON         CLEAR     72  69  90 S8        30.05R
PARSONS        CLEAR     70  68  93 CALM      30.05R
WICHITA INTL   PTCLDY    72  69  90 S7        30.03R
WICHITA JABRA  CLEAR     74  70  87 S9        30.04R
WINFIELD       CLEAR     74  69  85 SE5       30.05S
$$

KSZ007>012-019>026-033>040-048>060-102>105-251200-
NORTHEAST KANSAS

CITY           SKY/WX    TMP DP  RH WIND       PRES   REMARKS
CONCORDIA      CLEAR     73  69  87 S9        30.01R
EMPORIA        CLEAR     70  70 100 S6        30.03S
LAWRENCE       CLEAR     70  68  93 E3        30.04R
MANHATTAN      CLEAR     74  72  93 E3        30.01R
OLATHE IND     CLEAR     71  67  87 SE5       30.06R
OLATHE EXE     CLEAR     70  67  90 SE6       30.06R
SALINA         CLEAR     73  68  84 S8        30.01R
TOPEKA BILLARD CLEAR     72  70  93 SE3       30.03S
TOPEKA FORBES  CLEAR     71  69  93 SE5       30.04R
$$




USA.gov is the U.S. government's official web portal to all federal, state and local government web resources and services.